Regional Weather Roundup
Issued by NWS Cleveland, OH

Home | Current Version | Previous Version | Text Only | Print | Product List | Glossary Off
Versions: 1 2 3 4 5 6 7 8 9 10 11 12 13 14 15 16 17 18 19 20 21 22 23 24 25 26 27 28 29 30 31 32 33 34 35 36 37 38 39 40 41 42 43 44 45 46 47 48 49 50

917
ASUS41 KCLE 200510
RWRCLE
OHIO REGIONAL WEATHER ROUNDUP
NATIONAL WEATHER SERVICE WILMINGTON, OH
1200 AM EST SAT JAN 20 2018

NOTE: "FAIR" INDICATES FEW OR NO CLOUDS BELOW 12,000 FEET WITH NO
SIGNIFICANT WEATHER AND/OR OBSTRUCTIONS TO VISIBILITY.

OHZ001>008-015>018-024>027-034-035-043-044-200600-
   NORTHWEST OHIO

CITY           SKY/WX    TMP DP  RH WIND       PRES   REMARKS
DEFIANCE       FAIR      34  24  67 SW15G25   29.85S WCI  24
FINDLAY        FAIR      34  22  61 SW22      29.86F WCI  22
TOLEDO EXPRESS FAIR      35  26  69 SW17G33   29.81F WCI  25
TOLEDO EXEC    FAIR      34  24  67 SW22      29.83S WCI  22
LIMA           FAIR      32  23  69 S17       29.88F WCI  21
$$

OHZ009>014-019>023-028>033-038-089-200600-
   NORTHEAST OHIO

CITY           SKY/WX    TMP DP  RH WIND       PRES   REMARKS
CLE-HOPKINS    FAIR      37  23  56 S17G26    29.87F
CLE-LAKEFRONT  FAIR      36  21  54 S20G26    29.84F
CUY CO. ARPT   NOT AVBL
LORAIN-ELYRIA  FAIR      35  19  52 SW24G30   29.85F WCI  23
ASHTABULA      FAIR      34  19  54 S12       29.84F WCI  25
AKRON-CANTON   FAIR      32  18  56 SW20      29.90F WCI  20
WOOSTER        FAIR      32  20  61 SW14G24   29.90F WCI  22
MANSFIELD      FAIR      33  20  58 S25G35    29.89F WCI  20
YOUNGSTOWN     MOCLDY    34  18  52 SW17G24   29.88F WCI  23
$$

OHZ042-051>053-060>062-070>072-077>081-200600-
  SOUTHWEST OHIO

CITY           SKY/WX    TMP DP  RH WIND       PRES   REMARKS
CINC-COVINGTON FAIR      36  22  56 SW13G22   30.01F
CINC-LUNKEN    FAIR      33  21  61 S10       30.05F WCI  25
HAMILTON       FAIR      37  22  54 SW9       30.03S
DAYTON         FAIR      33  23  66 SW20      29.97R WCI  21
WRIGHT-PAT AFB FAIR      34  14  43 S16       29.97S WCI  24
DAYTON GENERAL FAIR      35  21  56 SW13      29.98S WCI  26
WILMINGTON     FAIR      33  21  61 SW17      29.99F WCI  22
$$

OHZ036-037-039>041-045>050-054>059-063>069-073>076-082>088-200600-
  CENTRAL AND SOUTHEAST OHIO

CITY           SKY/WX    TMP DP  RH WIND       PRES   REMARKS
COLUMBUS       FAIR      31  20  63 S6        29.99F WCI  25
OSU AIRPORT    FAIR      32  21  64 S12       29.97F WCI  23
BOLTON FIELD   FAIR      32  21  63 SW10G17   30.00R WCI  24
RICKENBACK AFB FAIR      32  20  61 SW12      30.01S WCI  23
NEWARK         FAIR      34  19  54 SW9       29.98F WCI  27
MARION         FAIR      30  19  63 S18       29.92F WCI  18
LANCASTER      FAIR      36  20  52 S9        30.00F
ZANESVILLE     FAIR      33  18  53 S9        30.00F WCI  25
NEW PHILLY     FAIR      34  18  52 S6        29.97F WCI  29
$$




USA.gov is the U.S. government's official web portal to all federal, state and local government web resources and services.